This is the latest recevied weather packets stored in our database for station/object KA9CBS. If no packets are shown the sender has not sent any weather packets the latest 10 day(s).
| Time | Temp. | Humidity | Pressure | Rain* | Wind** | Luminosity | Snow |
|---|---|---|---|---|---|---|---|
| 1788016651 | 27.78° C | 65% | 1022.9 hPa | 0 mm | - | 474 W/m² | - |
| 1788016349 | 27.78° C | 63% | 1023 hPa | 0 mm | - | 496 W/m² | - |
| 1788016049 | 27.78° C | 64% | 1023 hPa | 0 mm | - | 461 W/m² | - |
| 1788015748 | 27.22° C | 65% | 1023.1 hPa | 0 mm | - | 467 W/m² | - |
| 1788015444 | 27.22° C | 66% | 1022.9 hPa | 0 mm | - | 460 W/m² | - |
| 1788015139 | 26.67° C | 67% | 1023 hPa | 0 mm | - | 467 W/m² | - |
| 1788014837 | 26.11° C | 69% | 1023 hPa | 0 mm | - | 394 W/m² | - |
| 1788014537 | 26.11° C | 68% | 1023.1 hPa | 0 mm | - | 362 W/m² | - |
| 1788014232 | 26.11° C | 68% | 1023.1 hPa | 0 mm | - | 378 W/m² | - |
| 1788013927 | 25.56° C | 71% | 1023.1 hPa | 0 mm | - | 371 W/m² | - |
| 1788013627 | 25.56° C | 74% | 1023.1 hPa | 0 mm | - | 306 W/m² | - |
| 1788013315 | 25.56° C | 76% | 1023.1 hPa | 0 mm | - | 299 W/m² | - |
| 1788013015 | 25.56° C | 76% | 1023.2 hPa | 0 mm | - | 269 W/m² | - |
| 1788012709 | 25° C | 77% | 1023.3 hPa | 0 mm | - | 249 W/m² | - |
| 1788012405 | 25° C | 78% | 1023.3 hPa | 0 mm | - | 254 W/m² | - |
| 1788012104 | 24.44° C | 78% | 1023.1 hPa | 0 mm | - | 245 W/m² | - |
| 1788011799 | 24.44° C | 78% | 1023.1 hPa | 0 mm | - | 230 W/m² | - |
| 1788011498 | 24.44° C | 79% | 1023.1 hPa | 0 mm | - | 223 W/m² | - |
| 1788011193 | 23.89° C | 79% | 1023.7 hPa | 0 mm | - | 203 W/m² | - |
| 1788010888 | 23.89° C | 80% | 1023.3 hPa | 0 mm | - | 183 W/m² | - |
| 1788010587 | 23.33° C | 81% | 1023.2 hPa | 0 mm | - | 184 W/m² | - |
| 1788010281 | 22.78° C | 82% | 1023.2 hPa | 0 mm | - | 175 W/m² | - |
| 1788009981 | 22.78° C | 83% | 1023 hPa | 0 mm | - | 154 W/m² | - |
| 1788009674 | 22.22° C | 85% | 1023.1 hPa | 0 mm | - | 152 W/m² | - |
| 1788009374 | 21.67° C | 87% | 1022.9 hPa | 0 mm | - | 134 W/m² | - |
* Rain latest hour (hover to see other rain measurements)
** Current wind speed in m/s (hover to see current wind gust speed)